Regional Weather Roundup
Issued by NWS

Home | Current Version | Previous Version | Text Only | Print | Product List | Glossary On
Versions: 1 2 3 4 5 6 7 8 9 10 11 12 13 14 15 16 17 18 19 20 21 22 23 24 25 26 27 28 29 30 31 32 33 34 35 36 37 38 39 40 41 42 43 44 45 46 47 48 49 50
000
ASUS43 KLMK 251302
RWRKY
KENTUCKY REGIONAL WEATHER ROUNDUP
NATIONAL WEATHER SERVICE LOUISVILLE KY
900 AM EDT FRI JUL 25 2014

NOTE "FAIR" INDICATES FEW OR NO CLOUDS BELOW 12,000 FEET
WITH NO SIGNIFICANT WEATHER AND/OR OBSTRUCTIONS TO VISIBILITY.

KYZ001>023-026-027-061>063-070>075-251400-
WESTERN AND SOUTH CENTRAL KENTUCKY

CITY           SKY/WX    TMP DP  RH WIND       PRES   REMARKS
PADUCAH        PTSUNNY   67  62  84 CALM      30.07R
HENDERSON      MOSUNNY   64  59  82 CALM      30.09R
OWENSBORO      SUNNY     67  57  70 E6        30.09R
HOPKINSVILLE   SUNNY     68  58  71 E7        30.08R
BOWLING GREEN  SUNNY     66  57  72 CALM      30.10R
GLASGOW        SUNNY     64  58  79 CALM      30.09R
$$

KYZ024-025-028>034-038-045-046-053-251400-
NORTH CENTRAL KENTUCKY

CITY           SKY/WX    TMP DP  RH WIND       PRES   REMARKS
LOUISVILLE/SDF PTSUNNY   68  56  65 SE5       30.09F
LOUISVILLE/LOU SUNNY     67  56  67 VRB3      30.09F
FORT KNOX      SUNNY     65  58  76 E5        30.09R
$$

KYZ035>037-039>044-047>052-055>060-089>105-251400-
NORTHEAST KENTUCKY

CITY           SKY/WX    TMP DP  RH WIND       PRES   REMARKS
LEXINGTON      SUNNY     67  58  72 E8        30.10F
COVINGTON      MOSUNNY   66  54  65 SE7       30.10F
FRANKFORT      SUNNY     64  57  78 E3        30.09F
$$

KYZ054-064>069-076>088-106>120-251400-
SOUTHEAST KENTUCKY

CITY           SKY/WX    TMP DP  RH WIND       PRES   REMARKS
JACKSON        FOG       61  60  97 CALM      30.13R VSB<1/4
LONDON         CLOUDY    62  59  90 NE5       30.13R
SOMERSET       NOT AVBL
MIDDLESBORO    CLOUDY    63  59  88 CALM      30.12R
MONTICELLO     FOG       62  62 100 CALM      30.14R VSB<1/4
$$




USA.gov is the U.S. government's official web portal to all federal, state and local government web resources and services.